Location: Unspecified
(54.1780°N, 0.0000°E)
Time: 21:05:48
(UTC+00:00)

S-56A Canister/Altair - Pass Details

Date: 08 October 2020
Orbit: 632 x 2500 km, 38.9° (Epoch: 20 October)

Event Time Altitude Azimuth Distance (km) Brightness Sun altitude
Rises 18:02:25 0° 277° (W) 6,182 14.5 -7.3°
Reaches altitude 10° 18:08:22 10° 261° (W) 5,132 13.4 -8.2°
Maximum altitude 18:16:41 18° 226° (SW) 4,266 11.9 -9.4°
Drops below altitude 10° 18:24:11 10° 190° (S) 4,529 11.5 -10.5°
Sets 18:28:59 0° 173° (S) 5,209 11.7 -11.2°
